TimeEST,TemperatureF,Dew PointF,Humidity,Sea Level PressureIn,VisibilityMPH,Wind Direction,Wind SpeedMPH,Gust SpeedMPH,PrecipitationIn,Events,Conditions,WindDirDegrees,DateUTC
12:15 AM,37.4,32.0,81,29.91,10.0,Calm,Calm,-,N/A,,Clear,0,2012-12-19 05:15:00
12:35 AM,37.4,32.0,81,29.90,10.0,Calm,Calm,-,N/A,,Clear,0,2012-12-19 05:35:00
12:55 AM,37.4,32.0,81,29.89,10.0,Calm,Calm,-,N/A,,Clear,0,2012-12-19 05:55:00
1:15 AM,35.6,32.0,87,29.90,10.0,Calm,Calm,-,N/A,,Clear,0,2012-12-19 06:15:00
1:35 AM,35.6,32.0,87,29.91,10.0,Calm,Calm,-,N/A,,Clear,0,2012-12-19 06:35:00
1:55 AM,35.6,32.0,87,29.91,10.0,Calm,Calm,-,N/A,,Clear,0,2012-12-19 06:55:00
2:15 AM,35.6,32.0,87,29.91,10.0,South,3.5,-,N/A,,Clear,190,2012-12-19 07:15:00
2:35 AM,35.6,32.0,87,29.91,10.0,Calm,Calm,-,N/A,,Clear,0,2012-12-19 07:35:00
2:55 AM,33.8,33.8,100,29.92,10.0,Calm,Calm,-,N/A,,Clear,0,2012-12-19 07:55:00
3:15 AM,-9999,-9999,N/A,29.92,10.0,Calm,Calm,-,N/A,,Clear,0,2012-12-19 08:15:00
3:35 AM,-9999,-9999,N/A,29.93,10.0,Calm,Calm,-,N/A,,Clear,0,2012-12-19 08:35:00
8:15 AM,39.2,35.6,87,30.00,10.0,SW,3.5,-,N/A,,Clear,220,2012-12-19 13:15:00
8:35 AM,41.0,32.0,70,30.00,10.0,SSW,4.6,-,N/A,,Clear,210,2012-12-19 13:35:00
8:55 AM,42.8,32.0,66,30.01,10.0,SSW,3.5,-,N/A,,Clear,210,2012-12-19 13:55:00
9:15 AM,46.4,32.0,57,30.02,10.0,SW,4.6,-,N/A,,Clear,220,2012-12-19 14:15:00
9:35 AM,48.2,32.0,54,30.02,10.0,SW,3.5,-,N/A,,Clear,230,2012-12-19 14:35:00
9:55 AM,50.0,32.0,50,30.02,10.0,WSW,3.5,-,N/A,,Clear,250,2012-12-19 14:55:00
10:15 AM,51.8,32.0,47,30.02,10.0,WSW,4.6,-,N/A,,Clear,250,2012-12-19 15:15:00
10:35 AM,53.6,32.0,44,30.03,10.0,WSW,5.8,-,N/A,,Clear,250,2012-12-19 15:35:00
10:55 AM,55.4,32.0,41,30.03,10.0,WSW,3.5,-,N/A,,Clear,240,2012-12-19 15:55:00
11:15 AM,59.0,32.0,36,30.02,10.0,West,6.9,-,N/A,,Clear,260,2012-12-19 16:15:00
11:35 AM,59.0,32.0,36,30.01,10.0,West,8.1,-,N/A,,Clear,270,2012-12-19 16:35:00
11:55 AM,60.8,32.0,34,30.01,10.0,West,4.6,16.1,N/A,,Clear,270,2012-12-19 16:55:00
12:15 PM,60.8,32.0,34,30.01,10.0,West,5.8,-,N/A,,Clear,280,2012-12-19 17:15:00
12:35 PM,60.8,32.0,34,30.00,10.0,WNW,8.1,-,N/A,,Clear,300,2012-12-19 17:35:00
12:55 PM,60.8,32.0,34,30.00,10.0,WNW,6.9,16.1,N/A,,Clear,300,2012-12-19 17:55:00
1:15 PM,62.6,32.0,32,29.99,10.0,West,5.8,-,N/A,,Clear,260,2012-12-19 18:15:00
1:35 PM,62.6,32.0,32,29.98,10.0,NW,4.6,-,N/A,,Clear,310,2012-12-19 18:35:00
1:55 PM,62.6,32.0,32,29.99,10.0,WSW,4.6,-,N/A,,Clear,250,2012-12-19 18:55:00
2:15 PM,62.6,32.0,32,29.98,10.0,WNW,6.9,-,N/A,,Clear,300,2012-12-19 19:15:00
2:35 PM,62.6,32.0,32,29.99,10.0,WNW,5.8,-,N/A,,Clear,290,2012-12-19 19:35:00
2:55 PM,64.4,32.0,30,29.98,10.0,Calm,Calm,-,N/A,,Clear,0,2012-12-19 19:55:00
3:15 PM,62.6,32.0,32,29.99,10.0,WSW,3.5,-,N/A,,Clear,250,2012-12-19 20:15:00
3:35 PM,62.6,32.0,32,30.00,10.0,Calm,Calm,-,N/A,,Clear,0,2012-12-19 20:35:00
3:55 PM,60.8,32.0,34,30.00,10.0,Calm,Calm,-,N/A,,Clear,0,2012-12-19 20:55:00
4:15 PM,60.8,32.0,34,30.00,10.0,Calm,Calm,-,N/A,,Clear,0,2012-12-19 21:15:00
4:35 PM,57.2,33.8,41,30.01,10.0,Calm,Calm,-,N/A,,Clear,0,2012-12-19 21:35:00
4:55 PM,51.8,35.6,54,30.02,10.0,Calm,Calm,-,N/A,,Clear,0,2012-12-19 21:55:00
5:15 PM,50.0,35.6,58,30.03,10.0,Calm,Calm,-,N/A,,Clear,0,2012-12-19 22:15:00
5:35 PM,50.0,35.6,58,30.03,10.0,Calm,Calm,-,N/A,,Clear,0,2012-12-19 22:35:00
5:55 PM,46.4,35.6,66,30.04,10.0,Calm,Calm,-,N/A,,Clear,0,2012-12-19 22:55:00
6:15 PM,46.4,35.6,66,30.05,10.0,Calm,Calm,-,N/A,,Clear,0,2012-12-19 23:15:00
6:35 PM,46.4,35.6,66,30.06,10.0,Calm,Calm,-,N/A,,Clear,0,2012-12-19 23:35:00
6:55 PM,46.4,35.6,66,30.07,10.0,Calm,Calm,-,N/A,,Clear,0,2012-12-19 23:55:00
7:15 PM,46.4,33.8,62,30.07,10.0,Calm,Calm,-,N/A,,Clear,0,2012-12-20 00:15:00
7:35 PM,42.8,33.8,70,30.08,10.0,Calm,Calm,-,N/A,,Clear,0,2012-12-20 00:35:00
7:55 PM,42.8,35.6,76,30.08,10.0,Calm,Calm,-,N/A,,Clear,0,2012-12-20 00:55:00
8:15 PM,42.8,35.6,76,30.09,10.0,Calm,Calm,-,N/A,,Clear,0,2012-12-20 01:15:00
8:35 PM,41.0,33.8,76,30.10,10.0,Calm,Calm,-,N/A,,Clear,0,2012-12-20 01:35:00
8:55 PM,41.0,33.8,76,30.10,10.0,Calm,Calm,-,N/A,,Clear,0,2012-12-20 01:55:00
9:15 PM,41.0,35.6,81,30.10,10.0,Calm,Calm,-,N/A,,Clear,0,2012-12-20 02:15:00
9:35 PM,39.2,33.8,81,30.11,10.0,Calm,Calm,-,N/A,,Clear,0,2012-12-20 02:35:00
9:55 PM,39.2,35.6,87,30.11,10.0,Calm,Calm,-,N/A,,Clear,0,2012-12-20 02:55:00
10:15 PM,39.2,33.8,81,30.13,10.0,Calm,Calm,-,N/A,,Clear,0,2012-12-20 03:15:00
10:35 PM,37.4,35.6,93,30.13,10.0,Calm,Calm,-,N/A,,Clear,0,2012-12-20 03:35:00
10:55 PM,35.6,35.6,100,30.13,10.0,Calm,Calm,-,N/A,,Clear,0,2012-12-20 03:55:00
11:15 PM,35.6,35.6,100,30.14,10.0,Calm,Calm,-,N/A,,Clear,0,2012-12-20 04:15:00
11:35 PM,37.4,37.4,100,30.14,10.0,Calm,Calm,-,N/A,,Clear,0,2012-12-20 04:35:00
11:55 PM,37.4,37.4,100,30.16,10.0,NNE,4.6,-,N/A,,Clear,20,2012-12-20 04:55:00